Weather reports worldwide

Advertisment
Hyeres, France (7667): temperature & dewpoint: 08.11.2018 13:00:00 - 14.11.2018 13:00:00 (CET)Hyeres, France (7667): temperature 5cm: 08.11.2018 13:00:00 - 14.11.2018 13:00:00 (CET)Hyeres, France (7667): wind speed & gusts: 08.11.2018 13:00:00 - 14.11.2018 13:00:00 (CET)Hyeres, France (7667): wind direction: 08.11.2018 13:00:00 - 14.11.2018 13:00:00 (CET)Hyeres, France (7667): reduced air pressure: 08.11.2018 13:00:00 - 14.11.2018 13:00:00 (CET)Hyeres, France (7667): visibility: 08.11.2018 13:00:00 - 14.11.2018 13:00:00 (CET)Hyeres, France (7667): precipitation: 08.11.2018 13:00:00 - 14.11.2018 13:00:00 (CET)
Date & Time tt [°C] td [°C] tt 5cm [°C] ff [km/h] ff [kn] fx [km/h] fx [kn] dd ppp [hPa] vv [km] rr [mm]
14.11.2018 13:00:00 19,6 15,9 21,9 13 7 22 12 ESE 1026,6 20 0,0
14.11.2018 12:00:00 19,3 15,2 21,5 13 7 20 11 E 1027,2 19 0,0
14.11.2018 11:00:00 19,0 15,7 19,0 11 6 16 9 E 1027,9 19 0,0
14.11.2018 10:00:00 17,8 15,6 15,9 6 3 9 5 NE 1027,8 10 0,0
14.11.2018 09:00:00 15,6 14,6 11,8 2 1 8 5 NNW 1027,7 11 0,0
14.11.2018 08:00:00 13,7 12,8 11,7 7 4 9 5 NNE 1027,4 10 0,0
14.11.2018 07:00:00 13,7 12,9 11,2 4 2 9 5 NE 1027,0 8 0,0
14.11.2018 06:00:00 14,9 13,3 12,9 3 2 9 5 NW 1026,8 15 0,0
14.11.2018 05:00:00 15,0 13,5 13,3 6 3 10 5 NW 1026,7 16 0,0
14.11.2018 04:00:00 14,8 13,8 12,6 4 2 14 8 N 1026,8 14 0,0
14.11.2018 03:00:00 13,8 13,3 9,1 7 4 12 7 NNW 1027,3 11 0,0
14.11.2018 02:00:00 12,8 12,0 9,3 6 3 8 5 NW 1027,2 11 0,0
14.11.2018 01:00:00 13,7 12,8 11,1 6 3 8 5 N 1027,5 9 0,0
14.11.2018 00:00:00 14,8 13,8 12,0 4 2 10 6 NW 1027,8 10 0,0
13.11.2018 23:00:00 14,7 13,9 10,9 4 2 12 6 N 1027,9 9 0,2
13.11.2018 22:00:00 14,3 13,5 10,7 4 2 10 5 N 1028,0 8 0,0
13.11.2018 21:00:00 14,7 13,7 10,9 5 3 9 5 N 1027,9 4,7 0,0
13.11.2018 20:00:00 15,0 13,9 10,9 4 2 8 4 NNW 1027,8 6 0,0
13.11.2018 19:00:00 16,0 14,4 11,7 3 1 5 3 N 1027,5 7 0,0
13.11.2018 18:00:00 17,2 15,5 12,1 0 0 5 3 N 1027,2 13 0,0
13.11.2018 17:00:00 18,4 15,8 16,4 4 2 11 6 E 1027,1 14 0,0
13.11.2018 16:00:00 19,5 16,2 19,3 7 4 11 6 ESE 1027,1 42 0,0
13.11.2018 15:00:00 19,6 15,7 19,9 7 4 13 7 ESE 1027,0 20 0,0
13.11.2018 14:00:00 19,9 15,5 21,4 10 5 14 8 ESE 1027,2 20 0,0
13.11.2018 13:00:00 20,3 16,3 20,4 9 5 14 8 ESE 1027,5 20 0,0
13.11.2018 12:00:00 19,9 15,5 20,6 9 5 13 7 E 1027,7 20 0,0
13.11.2018 11:00:00 19,8 15,0 20,5 8 4 16 9 ENE 1028,2 20 0,0
13.11.2018 10:00:00 18,7 15,0 17,7 7 4 11 6 NNE 1027,7 32 0,0
13.11.2018 09:00:00 17,4 15,2 15,3 6 3 11 6 N 1027,5 8 0,0
13.11.2018 08:00:00 16,5 14,9 14,1 8 4 10 5 N 1027,0 36 0,0
13.11.2018 07:00:00 16,3 14,7 13,7 6 3 17 9 N 1026,2 34 0,0
13.11.2018 06:00:00 17,0 15,0 14,8 10 6 36 19 NNE 1025,8 35 0,0
13.11.2018 05:00:00 18,3 15,7 15,7 13 7 25 14 ENE 1025,8 37 0,0
13.11.2018 04:00:00 18,0 15,3 15,8 9 5 32 17 NE 1025,7 43 0,0
13.11.2018 03:00:00 17,6 14,9 15,0 8 4 16 9 ENE 1025,6 42 0,0
13.11.2018 02:00:00 17,6 14,9 15,9 9 5 26 14 NNE 1025,6 40 0,0
13.11.2018 01:00:00 18,2 15,1 16,1 13 7 39 21 ENE 1025,5 44 0,0
13.11.2018 00:00:00 17,9 14,8 15,8 6 4 34 18 NE 1025,1 38 0,0
12.11.2018 23:00:00 18,7 15,4 15,5 21 11 32 18 E 1025,1 41 0,0
12.11.2018 22:00:00 18,1 15,0 15,6 8 4 15 8 NE 1025,2 48 0,0
12.11.2018 21:00:00 17,7 14,0 15,7 10 5 25 13 NE 1025,0 59 0,0
12.11.2018 20:00:00 18,4 14,9 16,7 14 7 36 20 ENE 1024,6 55 0,0
12.11.2018 19:00:00 18,5 15,4 16,7 19 10 34 18 E 1024,6 50 0,0
12.11.2018 18:00:00 18,4 15,5 16,8 16 8 32 17 ENE 1024,1 48 0,0
12.11.2018 17:00:00 18,6 14,3 16,8 19 10 32 18 E 1023,9 18 0,0
12.11.2018 16:00:00 18,8 14,9 17,6 22 12 37 20 E 1023,8 43 0,0
12.11.2018 15:00:00 19,2 15,7 18,0 23 12 40 21 E 1023,7 11 0,0
12.11.2018 14:00:00 19,4 16,1 18,5 24 13 39 21 E 1023,5 12 0,0
12.11.2018 13:00:00 19,1 16,0 18,4 23 13 38 21 E 1023,9 20 0,0
12.11.2018 12:00:00 19,6 15,9 19,1 18 10 34 19 E 1024,3 11 0,0
12.11.2018 11:00:00 19,2 15,9 18,8 19 11 33 18 E 1024,5 35 0,0
12.11.2018 10:00:00 19,8 15,6 18,1 17 9 29 16 ESE 1024,1 20 0,0
12.11.2018 09:00:00 18,9 15,4 17,3 18 10 35 19 ESE 1023,6 19 0,0
12.11.2018 08:00:00 18,4 15,5 16,7 16 9 31 17 SE 1022,9 48 0,0
12.11.2018 07:00:00 18,4 15,5 16,9 21 11 36 20 SE 1022,3 47 0,0
12.11.2018 06:00:00 18,2 16,0 16,7 24 13 37 20 ESE 1021,9 40 0,0
12.11.2018 05:00:00 18,2 16,2 16,8 20 11 37 20 ESE 1021,8 47 0,0
12.11.2018 04:00:00 18,2 16,4 16,6 20 11 38 20 ESE 1021,5 39 0,0
12.11.2018 03:00:00 18,0 16,2 16,6 22 12 35 19 ESE 1021,7 20 0,0
12.11.2018 02:00:00 18,2 16,4 16,5 20 11 36 19 E 1021,6 20 0,0
12.11.2018 01:00:00 18,1 16,3 15,2 18 10 34 18 ESE 1021,5 18 0,0
12.11.2018 00:00:00 17,4 15,6 15,3 26 14 46 25 E 1021,4 11 0,0
11.11.2018 23:00:00 18,5 15,7 16,0 19 10 31 17 SE 1021,2 19 0,0
11.11.2018 22:00:00 17,7 15,9 16,1 20 11 38 20 E 1021,1 48 0,0
11.11.2018 21:00:00 18,6 15,7 17,0 18 10 36 19 ESE 1020,7 20 0,0
11.11.2018 20:00:00 18,6 15,8 17,0 21 11 33 18 ESE 1020,2 41 0,0
11.11.2018 19:00:00 18,5 15,0 17,0 16 9 32 18 ESE 1020,0 43 0,0
11.11.2018 18:00:00 18,6 15,5 17,0 15 8 29 16 SE 1019,5 20 0,0
11.11.2018 17:00:00 18,6 15,5 17,1 17 9 28 15 SE 1019,1 19 0,0
11.11.2018 16:00:00 18,8 15,5 17,9 16 9 29 16 SE 1019,0 17 0,0
11.11.2018 15:00:00 19,1 16,0 19,0 16 9 26 14 SE 1018,8 2,1 0,0
11.11.2018 14:00:00 19,3 15,8 19,4 14 7 29 16 SE 1018,7 19 0,0
11.11.2018 13:00:00 20,0 16,2 18,6 16 9 29 16 SE 1018,4 16 0,0
11.11.2018 12:00:00 18,8 15,8 16,8 16 9 30 16 SSE 1018,6 18 0,0
11.11.2018 11:00:00 18,3 15,9 16,5 15 8 29 16 SSE 1018,3 13 0,2
11.11.2018 10:00:00 18,3 15,5 15,6 15 8 32 17 SSE 1017,9 18 0,0
11.11.2018 09:00:00 18,1 15,2 15,0 16 9 32 17 SSE 1017,4 19 0,0
11.11.2018 08:00:00 17,9 14,4 15,8 16 9 29 16 SSE 1016,5 57 0,0
11.11.2018 07:00:00 17,7 14,6 15,0 17 9 32 18 SSE 1015,9 52 0,0
11.11.2018 06:00:00 17,8 14,3 16,0 13 7 26 14 SE 1015,6 50 0,0
11.11.2018 05:00:00 17,7 14,0 15,7 14 7 24 13 SSE 1015,5 60 0,0
11.11.2018 04:00:00 17,6 13,5 15,5 13 7 24 13 SSE 1015,4 60 0,0
11.11.2018 03:00:00 17,5 13,0 15,3 12 7 22 12 SSE 1015,6 60 0,0
11.11.2018 02:00:00 17,4 12,9 15,3 12 6 19 10 S 1015,6 60 0,0
11.11.2018 01:00:00 17,4 12,9 15,0 12 6 17 9 S 1015,6 60 0,0
11.11.2018 00:00:00 17,1 12,4 13,6 10 5 20 11 S 1015,6 60 0,0
10.11.2018 23:00:00 17,1 13,4 13,9 13 7 25 14 S 1015,7 60 0,2
10.11.2018 22:00:00 17,2 13,5 15,1 12 7 23 13 SE 1015,3 60 0,0
10.11.2018 21:00:00 17,5 13,0 15,0 14 8 22 12 SE 1015,2 60 0,0
10.11.2018 20:00:00 17,1 12,8 13,9 11 6 16 9 SSE 1014,9 60 0,0
10.11.2018 19:00:00 16,9 12,4 14,5 10 5 19 11 SSE 1015,0 60 0,0
10.11.2018 18:00:00 17,0 12,3 14,9 10 5 19 10 SSE 1014,7 60 0,0
10.11.2018 17:00:00 17,4 11,9 15,6 11 6 18 10 SSE 1014,4 60 0,0
10.11.2018 16:00:00 17,8 11,8 16,7 10 5 16 9 S 1014,2 60 0,0
10.11.2018 15:00:00 18,2 11,0 17,8 10 5 19 10 SE 1013,7 60 0,0
10.11.2018 14:00:00 18,6 12,1 19,5 14 8 23 12 ESE 1013,7 48 0,0
10.11.2018 13:00:00 18,8 12,5 18,8 12 6 21 11 SSE 1014,3 60 0,0
10.11.2018 12:00:00 17,7 12,8 16,9 13 7 24 13 S 1015,0 54 0,0
10.11.2018 11:00:00 17,9 13,4 17,9 13 7 23 13 S 1015,3 60 0,0
10.11.2018 10:00:00 18,8 13,2 15,4 15 8 23 12 S 1014,9 50 0,0
10.11.2018 09:00:00 17,4 14,3 14,5 9 5 24 13 SSW 1014,8 45 0,0
10.11.2018 08:00:00 14,6 13,8 10,2 3 2 11 6 N 1014,6 19 0,0
10.11.2018 07:00:00 12,9 11,6 9,1 3 2 6 3 NNE 1014,0 17 0,0
10.11.2018 06:00:00 14,4 12,3 11,3 0 0 14 8 N 1014,1 41 0,0
10.11.2018 05:00:00 16,3 13,6 12,4 8 5 23 12 SSE 1014,3 56 0,0
10.11.2018 04:00:00 17,8 15,2 15,4 15 8 33 18 E 1014,3 43 0,0
10.11.2018 03:00:00 17,6 15,0 14,8 23 13 37 20 E 1014,7 20 0,0
10.11.2018 02:00:00 17,5 14,4 15,4 16 9 30 16 ESE 1014,8 54 0,0
10.11.2018 01:00:00 17,5 13,6 15,3 17 9 32 17 ESE 1014,8 58 0,0
10.11.2018 00:00:00 17,8 13,3 15,8 18 10 37 20 SE 1014,9 60 0,0
09.11.2018 23:00:00 18,0 13,1 15,6 21 11 34 18 ESE 1015,2 60 0,0
09.11.2018 22:00:00 17,5 13,6 15,0 19 10 39 21 E 1015,2 17 0,0
09.11.2018 21:00:00 17,8 14,9 14,7 22 12 54 29 E 1015,0 20 0,0
09.11.2018 20:00:00 17,4 15,2 14,4 25 13 49 27 ESE 1014,5 8 3,5
09.11.2018 19:00:00 17,5 15,3 14,8 31 17 55 30 E 1013,8 19 0,0
09.11.2018 18:00:00 16,5 14,7 14,3 16 9 30 16 ENE 1013,6 37 1,2
09.11.2018 17:00:00 16,2 14,6 14,2 12 7 26 14 N 1014,2 3,4 3,8
09.11.2018 16:00:00 17,9 14,2 15,2 19 11 41 22 ENE 1014,7 20 0,0
09.11.2018 15:00:00 18,4 13,7 15,1 28 15 45 24 E 1013,8 23 0,0
09.11.2018 14:00:00 18,4 13,9 15,6 24 13 46 25 E 1013,9 21 0,0
09.11.2018 13:00:00 19,0 14,9 17,9 23 13 42 23 E 1014,7 10 0,0
09.11.2018 12:00:00 18,7 13,5 18,6 26 14 42 23 E 1015,1 19 0,0
09.11.2018 11:00:00 19,2 15,1 15,7 24 13 41 22 E 1015,2 16 0,0
09.11.2018 10:00:00 16,6 15,0 15,0 13 7 40 21 ENE 1015,2 20 0,2
09.11.2018 09:00:00 16,8 15,0 14,5 21 11 32 18 E 1015,5 37 3,3
09.11.2018 08:00:00 17,6 14,3 15,6 14 8 23 13 E 1015,7 60 0,0
09.11.2018 07:00:00 17,4 13,9 15,3 14 7 26 14 E 1015,9 60 0,0
09.11.2018 06:00:00 17,3 13,8 15,2 15 8 26 14 E 1015,9 60 0,0
09.11.2018 05:00:00 17,3 13,4 14,1 12 7 28 15 ESE 1016,2 60 0,0
09.11.2018 04:00:00 16,3 14,1 12,2 13 7 24 13 ESE 1016,5 20 0,2
09.11.2018 03:00:00 14,1 12,8 11,6 6 3 10 5 NNE 1017,1 41 0,0
09.11.2018 02:00:00 14,3 12,5 11,6 6 3 14 8 N 1017,5 49 0,0
09.11.2018 01:00:00 16,4 12,7 14,3 8 5 18 10 NE 1018,1 43 0,0
09.11.2018 00:00:00 16,8 13,1 15,0 10 5 19 11 ESE 1018,6 60 0,0
08.11.2018 23:00:00 17,1 13,6 15,2 12 7 22 12 ESE 1018,6 60 0,0
08.11.2018 22:00:00 17,0 13,7 13,7 12 7 23 12 ESE 1018,6 49 0,0
08.11.2018 21:00:00 15,3 13,5 12,9 8 4 10 5 NNE 1018,6 20 0,0
08.11.2018 20:00:00 15,4 13,4 12,9 5 3 11 6 NNE 1018,9 46 0,0
08.11.2018 19:00:00 15,2 13,2 12,9 7 4 14 8 NNE 1019,1 51 0,0
08.11.2018 18:00:00 16,7 13,6 15,0 9 5 20 11 NE 1018,9 58 0,0
08.11.2018 17:00:00 17,5 13,8 15,9 7 4 18 10 E 1018,7 56 0,0
08.11.2018 16:00:00 18,8 13,9 19,7 9 5 18 10 SE 1018,8 20 0,0
08.11.2018 15:00:00 19,3 13,7 21,1 10 5 19 10 SE 1019,2 47 0,0
08.11.2018 14:00:00 18,9 13,7 21,3 11 6 17 9 E 1019,3 54 0,0
08.11.2018 13:00:00 19,3 14,1 22,4 9 5 16 9 ESE 1019,9 19 0,0

tt = temperature
td = dewpoint
tt 5cm = temperature 5cm
ff = wind speed
fx = gusts
dd = wind direction
ppp = reduced air pressure
vv = visibility
rr = precipitation

Next stations